EZY739 EDDM-EGKK

Flight info

Callsign EZY739
Flight time 1h 33m
Altitude 36000
Route OLASO2S/26L OLASO Z714 PELOG UM164 LUPEN/N0446F350 DCT POGOL DCT LUVAL DCT ROTSI/N0444F360 DCT KOTUN DCT NINAL DCT KESAX DCT KUNAV
Aircraft A20N/M-SDE2E3FGHIRWXY/LB1

Departure

Time 2026-05-06 19:17
Airport Munich Airport (EDDM)

Arrival

Time 2026-05-06 20:50
Airport London Gatwick Airport (EGKK)
Time Latitude Longitude Altitude Speed Heading
2026-05-06 18:15 48.35411 11.79295 1458 ft 0 kts 273°
2026-05-06 18:46 48.35411 11.79305 1467 ft 3 kts 271°
2026-05-06 18:46 48.35411 11.79338 1465 ft 3 kts 264°
2026-05-06 18:46 48.35414 11.79370 1459 ft 3 kts 255°
2026-05-06 18:46 48.35421 11.79401 1456 ft 3 kts 245°
2026-05-06 18:47 48.35431 11.79430 1460 ft 3 kts 234°
2026-05-06 18:47 48.35445 11.79456 1458 ft 3 kts 223°
2026-05-06 18:47 48.35462 11.79476 1457 ft 3 kts 211°
2026-05-06 18:47 48.35482 11.79491 1456 ft 3 kts 200°
2026-05-06 18:48 48.35503 11.79501 1457 ft 3 kts 189°
2026-05-06 18:48 48.35524 11.79504 1456 ft 3 kts 180°
2026-05-06 18:48 48.35540 11.79504 1465 ft 1 kts 173°
2026-05-06 19:04 48.35539 11.79504 1439 ft 1 kts 173°
2026-05-06 19:04 48.35493 11.79512 1462 ft 15 kts 173°
2026-05-06 19:04 48.35342 11.79539 1459 ft 25 kts 174°
2026-05-06 19:05 48.35172 11.79568 1459 ft 25 kts 169°
2026-05-06 19:05 48.35133 11.79581 1462 ft 0 kts 162°
2026-05-06 19:06 48.35130 11.79582 1463 ft 2 kts 165°
2026-05-06 19:06 48.35065 11.79591 1461 ft 15 kts 175°
2026-05-06 19:07 48.35027 11.79597 1459 ft 2 kts 165°
2026-05-06 19:07 48.35002 11.79619 1461 ft 6 kts 139°
2026-05-06 19:07 48.34922 11.79722 1470 ft 15 kts 150°
2026-05-06 19:07 48.34912 11.79726 1462 ft 0 kts 166°
2026-05-06 19:09 48.34912 11.79725 1462 ft 0 kts 167°
2026-05-06 19:12 48.34904 11.79681 1464 ft 0 kts 167°
2026-05-06 19:12 48.34896 11.79684 1464 ft 3 kts 167°
2026-05-06 19:12 48.34855 11.79693 1463 ft 0 kts 172°
2026-05-06 19:13 48.34837 11.79702 1462 ft 6 kts 155°
2026-05-06 19:13 48.34803 11.79769 1462 ft 10 kts 91°
2026-05-06 19:13 48.34816 11.79908 1467 ft 18 kts 82°
2026-05-06 19:14 48.34816 11.80134 1467 ft 24 kts 112°
2026-05-06 19:14 48.34683 11.80250 1459 ft 24 kts 173°
2026-05-06 19:14 48.34583 11.80269 1459 ft 0 kts 172°
2026-05-06 19:15 48.34575 11.80271 1463 ft 3 kts 172°
2026-05-06 19:15 48.34526 11.80279 1459 ft 11 kts 175°
2026-05-06 19:15 48.34460 11.80206 1469 ft 14 kts 254°
2026-05-06 19:15 48.34455 11.80168 1468 ft 0 kts 263°
2026-05-06 19:16 48.34436 11.79926 1460 ft 55 kts 264°
2026-05-06 19:16 48.34366 11.79062 1461 ft 110 kts 264°
2026-05-06 19:16 48.34263 11.77703 1459 ft 150 kts 264°
2026-05-06 19:17 48.34138 11.76075 1867 ft 154 kts 262°
2026-05-06 19:17 48.33983 11.74562 2416 ft 158 kts 260°
2026-05-06 19:17 48.33783 11.72874 2801 ft 171 kts 263°
2026-05-06 19:17 48.33659 11.71017 3199 ft 187 kts 267°
2026-05-06 19:18 48.33607 11.69681 3519 ft 197 kts 267°
2026-05-06 19:18 48.33493 11.66796 4284 ft 220 kts 268°
2026-05-06 19:18 48.33430 11.65203 4716 ft 231 kts 267°
2026-05-06 19:18 48.33282 11.62754 5489 ft 240 kts 264°
2026-05-06 19:19 48.33062 11.60261 6378 ft 245 kts 263°
2026-05-06 19:19 48.32850 11.57888 6804 ft 250 kts 262°
2026-05-06 19:19 48.32632 11.55283 6997 ft 252 kts 262°
2026-05-06 19:19 48.32426 11.52664 7053 ft 252 kts 263°
2026-05-06 19:20 48.32230 11.50076 7058 ft 250 kts 263°
2026-05-06 19:20 48.32035 11.47462 7061 ft 251 kts 263°
2026-05-06 19:20 48.31843 11.44873 7061 ft 252 kts 263°
2026-05-06 19:20 48.31649 11.42247 7071 ft 253 kts 263°
2026-05-06 19:21 48.31452 11.39607 7423 ft 255 kts 263°
2026-05-06 19:21 48.31257 11.36985 8264 ft 256 kts 262°
2026-05-06 19:21 48.31057 11.34293 9202 ft 259 kts 261°
2026-05-06 19:21 48.30856 11.31593 10048 ft 264 kts 261°
2026-05-06 19:22 48.30647 11.28823 10874 ft 267 kts 261°
2026-05-06 19:22 48.30413 11.25970 11360 ft 285 kts 259°
2026-05-06 19:22 48.30133 11.22888 11611 ft 309 kts 259°
2026-05-06 19:22 48.29835 11.19639 12098 ft 322 kts 260°
2026-05-06 19:23 48.29530 11.16256 12885 ft 326 kts 260°
2026-05-06 19:23 48.29229 11.12886 13651 ft 331 kts 260°
2026-05-06 19:23 48.28919 11.09416 14299 ft 337 kts 259°
2026-05-06 19:23 48.28607 11.05946 14918 ft 343 kts 259°
2026-05-06 19:24 48.28283 11.02349 15559 ft 348 kts 259°
2026-05-06 19:24 48.27959 10.98734 16183 ft 354 kts 259°
2026-05-06 19:24 48.27629 10.95057 16792 ft 360 kts 259°
2026-05-06 19:24 48.27287 10.91278 17405 ft 366 kts 259°
2026-05-06 19:25 48.26941 10.87485 18013 ft 371 kts 259°
2026-05-06 19:25 48.26580 10.83566 18586 ft 375 kts 259°
2026-05-06 19:25 48.26227 10.79743 19208 ft 377 kts 259°
2026-05-06 19:25 48.25863 10.75828 19845 ft 379 kts 259°
2026-05-06 19:26 48.25503 10.71946 20535 ft 379 kts 258°
2026-05-06 19:26 48.25133 10.68004 21090 ft 383 kts 258°
2026-05-06 19:26 48.24759 10.64027 21665 ft 385 kts 258°
2026-05-06 19:26 48.24385 10.60061 22231 ft 388 kts 258°
2026-05-06 19:27 48.24007 10.56060 22801 ft 391 kts 258°
2026-05-06 19:27 48.23640 10.52201 23346 ft 394 kts 258°
2026-05-06 19:27 48.23255 10.48166 23844 ft 396 kts 258°
2026-05-06 19:27 48.22863 10.44061 24358 ft 397 kts 258°
2026-05-06 19:28 48.22472 10.39989 24850 ft 399 kts 258°
2026-05-06 19:28 48.22071 10.35830 25327 ft 400 kts 258°
2026-05-06 19:28 48.21675 10.31735 25799 ft 402 kts 258°
2026-05-06 19:28 48.21270 10.27548 26302 ft 403 kts 257°
2026-05-06 19:29 48.20945 10.23343 26727 ft 408 kts 262°
2026-05-06 19:29 48.20952 10.19106 27153 ft 413 kts 268°
2026-05-06 19:29 48.21100 10.14776 27574 ft 415 kts 268°
2026-05-06 19:29 48.21240 10.10436 27977 ft 417 kts 268°
2026-05-06 19:30 48.21373 10.06129 28374 ft 418 kts 268°
2026-05-06 19:30 48.21506 10.01735 28767 ft 419 kts 268°
2026-05-06 19:30 48.21635 9.97416 29312 ft 417 kts 267°
2026-05-06 19:30 48.21762 9.93058 29648 ft 419 kts 267°
2026-05-06 19:31 48.21894 9.88663 29978 ft 422 kts 268°
2026-05-06 19:31 48.22073 9.84271 30208 ft 427 kts 268°
2026-05-06 19:31 48.22470 9.75400 30779 ft 432 kts 268°
2026-05-06 19:32 48.22667 9.70863 31066 ft 433 kts 268°
2026-05-06 19:32 48.22958 9.66390 31390 ft 437 kts 274°
2026-05-06 19:32 48.23525 9.61843 31758 ft 439 kts 276°
2026-05-06 19:32 48.24097 9.57395 32088 ft 439 kts 275°
2026-05-06 19:33 48.24651 9.53023 32427 ft 439 kts 276°
2026-05-06 19:33 48.25215 9.48539 32758 ft 439 kts 276°
2026-05-06 19:33 48.25778 9.44005 33097 ft 440 kts 275°
2026-05-06 19:33 48.26288 9.39500 33304 ft 441 kts 275°
2026-05-06 19:34 48.26781 9.34950 33634 ft 441 kts 275°
2026-05-06 19:34 48.27268 9.30445 33946 ft 440 kts 275°
2026-05-06 19:34 48.27764 9.25882 34208 ft 440 kts 275°
2026-05-06 19:34 48.28260 9.21324 34460 ft 440 kts 275°
2026-05-06 19:35 48.28756 9.16776 34636 ft 442 kts 275°
2026-05-06 19:35 48.29247 9.12270 34831 ft 442 kts 275°
2026-05-06 19:35 48.29744 9.07692 35084 ft 442 kts 275°
2026-05-06 19:35 48.30239 9.03125 35356 ft 442 kts 275°
2026-05-06 19:36 48.30727 8.98598 35555 ft 442 kts 275°
2026-05-06 19:36 48.31220 8.94011 35774 ft 442 kts 275°
2026-05-06 19:36 48.32196 8.84896 35882 ft 441 kts 275°
2026-05-06 19:37 48.33160 8.75810 35880 ft 441 kts 275°
2026-05-06 19:37 48.34103 8.66847 35885 ft 441 kts 275°
2026-05-06 19:38 48.35054 8.57721 35886 ft 442 kts 276°
2026-05-06 19:38 48.36002 8.48566 35884 ft 442 kts 276°
2026-05-06 19:39 48.36941 8.39439 35884 ft 442 kts 276°
2026-05-06 19:39 48.37875 8.30278 35890 ft 442 kts 275°
2026-05-06 19:40 48.38797 8.21159 35887 ft 442 kts 275°
2026-05-06 19:40 48.39715 8.11997 35902 ft 442 kts 275°
2026-05-06 19:41 48.40621 8.02893 35909 ft 442 kts 275°
2026-05-06 19:41 48.41517 7.93813 35912 ft 442 kts 275°
2026-05-06 19:42 48.42413 7.84657 35906 ft 442 kts 275°
2026-05-06 19:42 48.43247 7.75485 35912 ft 441 kts 272°
2026-05-06 19:43 48.43291 7.66361 35896 ft 438 kts 264°
2026-05-06 19:43 48.42994 7.57167 35888 ft 439 kts 265°
2026-05-06 19:44 48.42711 7.48005 35870 ft 439 kts 265°
2026-05-06 19:44 48.42414 7.38815 35875 ft 439 kts 265°
2026-05-06 19:45 48.42105 7.29611 35880 ft 441 kts 265°
2026-05-06 19:45 48.41790 7.20421 35893 ft 441 kts 265°
2026-05-06 19:46 48.41466 7.11186 35895 ft 441 kts 265°
2026-05-06 19:46 48.41134 7.01944 35898 ft 441 kts 265°
2026-05-06 19:47 48.40797 6.92772 35903 ft 442 kts 265°
2026-05-06 19:47 48.40450 6.83547 35898 ft 442 kts 265°
2026-05-06 19:48 48.40096 6.74284 35898 ft 442 kts 265°
2026-05-06 19:48 48.39708 6.65219 35900 ft 441 kts 263°
2026-05-06 19:49 48.39117 6.56133 35900 ft 441 kts 262°
2026-05-06 19:49 48.38510 6.46961 35902 ft 441 kts 263°
2026-05-06 19:50 48.37915 6.37742 35900 ft 441 kts 263°
2026-05-06 19:50 48.37321 6.28558 35902 ft 441 kts 263°
2026-05-06 19:51 48.36722 6.19401 35906 ft 441 kts 263°
2026-05-06 19:51 48.36114 6.10226 35907 ft 442 kts 263°
2026-05-06 19:52 48.35499 6.01066 35915 ft 442 kts 263°
2026-05-06 19:52 48.34875 5.91872 35906 ft 442 kts 263°
2026-05-06 19:53 48.34241 5.82649 35903 ft 442 kts 263°
2026-05-06 19:53 48.33600 5.73441 35914 ft 443 kts 263°
2026-05-06 19:54 48.32952 5.64234 35915 ft 443 kts 263°
2026-05-06 19:54 48.32302 5.55101 35909 ft 443 kts 263°
2026-05-06 19:55 48.31639 5.45880 35918 ft 444 kts 263°
2026-05-06 19:55 48.30965 5.36634 35928 ft 444 kts 263°
2026-05-06 19:56 48.30290 5.27467 35932 ft 444 kts 262°
2026-05-06 19:56 48.29604 5.18239 35925 ft 444 kts 262°
2026-05-06 19:57 48.29066 5.09023 35937 ft 444 kts 266°
2026-05-06 19:57 48.28849 4.99744 35930 ft 444 kts 267°
2026-05-06 19:58 48.28592 4.90503 35935 ft 444 kts 266°
2026-05-06 19:58 48.28287 4.81188 35943 ft 444 kts 266°
2026-05-06 19:59 48.28024 4.72118 35938 ft 444 kts 271°
2026-05-06 19:59 48.29259 4.63049 35935 ft 446 kts 291°
2026-05-06 20:00 48.31800 4.56497 35933 ft 448 kts 308°
2026-05-06 20:00 48.35923 4.49528 35937 ft 448 kts 310°
2026-05-06 20:01 48.40078 4.42516 35937 ft 448 kts 310°
2026-05-06 20:01 48.44217 4.35499 35940 ft 449 kts 310°
2026-05-06 20:02 48.48344 4.28480 35956 ft 449 kts 310°
2026-05-06 20:02 48.52486 4.21421 35956 ft 449 kts 310°
2026-05-06 20:03 48.56609 4.14375 35947 ft 449 kts 310°
2026-05-06 20:03 48.60752 4.07275 35956 ft 449 kts 310°
2026-05-06 20:04 48.64856 4.00223 35953 ft 449 kts 310°
2026-05-06 20:04 48.68986 3.93107 35948 ft 449 kts 310°
2026-05-06 20:05 48.73134 3.86084 35948 ft 449 kts 314°
2026-05-06 20:05 48.77592 3.79488 35948 ft 448 kts 315°
2026-05-06 20:06 48.82025 3.72891 35948 ft 448 kts 314°
2026-05-06 20:06 48.86453 3.66279 35946 ft 448 kts 314°
2026-05-06 20:07 48.90911 3.59606 35947 ft 447 kts 314°
2026-05-06 20:07 48.95322 3.52987 35945 ft 447 kts 314°
2026-05-06 20:08 48.99748 3.46327 35946 ft 447 kts 314°
2026-05-06 20:08 49.04146 3.39694 35948 ft 447 kts 314°
2026-05-06 20:09 49.08546 3.33038 35948 ft 447 kts 314°
2026-05-06 20:09 49.12964 3.26338 35949 ft 447 kts 314°
2026-05-06 20:10 49.17348 3.19673 35951 ft 446 kts 314°
2026-05-06 20:10 49.21753 3.12957 35947 ft 446 kts 314°
2026-05-06 20:11 49.26147 3.06238 35957 ft 446 kts 314°
2026-05-06 20:11 49.30517 2.99541 35954 ft 446 kts 314°
2026-05-06 20:12 49.34880 2.92835 35956 ft 446 kts 314°
2026-05-06 20:12 49.39236 2.86123 35955 ft 446 kts 314°
2026-05-06 20:13 49.43614 2.79358 35957 ft 446 kts 314°
2026-05-06 20:13 49.47985 2.72587 35956 ft 445 kts 314°
2026-05-06 20:14 49.52335 2.65828 35958 ft 443 kts 314°
2026-05-06 20:14 49.56659 2.59092 35961 ft 441 kts 314°
2026-05-06 20:15 49.60924 2.52317 35964 ft 443 kts 310°
2026-05-06 20:15 49.64910 2.45053 35973 ft 441 kts 310°
2026-05-06 20:16 49.68873 2.37888 35974 ft 441 kts 310°
2026-05-06 20:16 49.72843 2.30668 35972 ft 441 kts 310°
2026-05-06 20:17 49.76816 2.23409 35974 ft 439 kts 310°
2026-05-06 20:17 49.80754 2.16190 35972 ft 439 kts 310°
2026-05-06 20:18 49.84616 2.09091 35967 ft 439 kts 309°
2026-05-06 20:18 49.86569 2.05495 35827 ft 440 kts 309°
2026-05-06 20:18 49.88471 2.01986 35600 ft 439 kts 310°
2026-05-06 20:19 49.90480 1.98276 35337 ft 437 kts 310°
2026-05-06 20:19 49.92444 1.94644 35091 ft 437 kts 310°
2026-05-06 20:19 49.94377 1.91063 34854 ft 436 kts 310°
2026-05-06 20:19 49.96333 1.87437 34614 ft 436 kts 310°
2026-05-06 20:20 49.98281 1.83819 34380 ft 436 kts 310°
2026-05-06 20:20 50.00212 1.80227 34137 ft 436 kts 310°
2026-05-06 20:20 50.02167 1.76585 33533 ft 438 kts 310°
2026-05-06 20:20 50.04120 1.72945 32766 ft 440 kts 310°
2026-05-06 20:21 50.06095 1.69266 32048 ft 439 kts 310°
2026-05-06 20:21 50.08195 1.65899 31289 ft 439 kts 317°
2026-05-06 20:21 50.10512 1.62773 30598 ft 438 kts 318°
2026-05-06 20:21 50.12807 1.59671 30109 ft 432 kts 318°
2026-05-06 20:22 50.15038 1.56640 29527 ft 426 kts 318°
2026-05-06 20:22 50.17260 1.53614 29250 ft 414 kts 318°
2026-05-06 20:22 50.19381 1.50726 29105 ft 400 kts 317°
2026-05-06 20:22 50.21448 1.47910 28988 ft 386 kts 317°
2026-05-06 20:23 50.23432 1.45204 28785 ft 375 kts 317°
2026-05-06 20:23 50.25384 1.42536 28290 ft 371 kts 317°
2026-05-06 20:23 50.27332 1.39870 27760 ft 369 kts 317°
2026-05-06 20:23 50.29261 1.37227 27264 ft 367 kts 317°
2026-05-06 20:24 50.31181 1.34594 26807 ft 363 kts 317°
2026-05-06 20:24 50.33055 1.32022 26324 ft 361 kts 317°
2026-05-06 20:24 50.34902 1.29485 25916 ft 357 kts 317°
2026-05-06 20:24 50.36778 1.26906 25427 ft 356 kts 317°
2026-05-06 20:25 50.38614 1.24378 24978 ft 354 kts 317°
2026-05-06 20:25 50.40471 1.21819 24527 ft 352 kts 317°
2026-05-06 20:25 50.42290 1.19310 24102 ft 349 kts 317°
2026-05-06 20:25 50.44112 1.16794 23672 ft 347 kts 317°
2026-05-06 20:26 50.45931 1.14278 23189 ft 345 kts 317°
2026-05-06 20:26 50.47713 1.11812 22723 ft 342 kts 317°
2026-05-06 20:26 50.49500 1.09335 22256 ft 340 kts 317°
2026-05-06 20:26 50.51265 1.06877 21693 ft 335 kts 315°
2026-05-06 20:27 50.52860 1.04271 21038 ft 332 kts 311°
2026-05-06 20:27 50.54421 1.01626 20383 ft 329 kts 312°
2026-05-06 20:27 50.55944 0.99063 19773 ft 326 kts 312°
2026-05-06 20:27 50.57473 0.96493 19170 ft 323 kts 312°
2026-05-06 20:28 50.59007 0.93911 18581 ft 320 kts 312°
2026-05-06 20:28 50.60529 0.91343 18106 ft 319 kts 312°
2026-05-06 20:28 50.62018 0.88826 17684 ft 316 kts 312°
2026-05-06 20:28 50.63517 0.86289 17260 ft 314 kts 312°
2026-05-06 20:29 50.64996 0.83783 16704 ft 310 kts 312°
2026-05-06 20:29 50.66452 0.81314 16275 ft 308 kts 312°
2026-05-06 20:29 50.67874 0.78808 16023 ft 304 kts 308°
2026-05-06 20:29 50.69182 0.76226 15817 ft 300 kts 308°
2026-05-06 20:30 50.70439 0.73765 15604 ft 289 kts 308°
2026-05-06 20:30 50.72860 0.69034 15183 ft 263 kts 308°
2026-05-06 20:30 50.74009 0.66785 15000 ft 267 kts 308°
2026-05-06 20:31 50.75175 0.64498 14795 ft 266 kts 308°
2026-05-06 20:31 50.76336 0.62217 14597 ft 264 kts 308°
2026-05-06 20:31 50.77476 0.59975 14403 ft 264 kts 308°
2026-05-06 20:31 50.78623 0.57718 14164 ft 261 kts 308°
2026-05-06 20:32 50.79713 0.55573 13769 ft 259 kts 308°
2026-05-06 20:32 50.80799 0.53429 13254 ft 258 kts 308°
2026-05-06 20:32 50.81924 0.51207 12712 ft 256 kts 308°
2026-05-06 20:32 50.83027 0.49026 12184 ft 255 kts 308°
2026-05-06 20:33 50.84134 0.46841 11647 ft 253 kts 308°
2026-05-06 20:33 50.85232 0.44671 11157 ft 251 kts 308°
2026-05-06 20:33 50.86313 0.42533 10670 ft 249 kts 309°
2026-05-06 20:33 50.87398 0.40385 10178 ft 248 kts 309°
2026-05-06 20:34 50.88475 0.38253 9714 ft 245 kts 308°
2026-05-06 20:34 50.89525 0.36174 9190 ft 244 kts 308°
2026-05-06 20:34 50.90500 0.34028 8662 ft 242 kts 294°
2026-05-06 20:34 50.90828 0.31453 8204 ft 239 kts 271°
2026-05-06 20:35 50.90849 0.28781 8024 ft 243 kts 271°
2026-05-06 20:35 50.90862 0.26131 8000 ft 241 kts 271°
2026-05-06 20:35 50.90874 0.23468 7999 ft 242 kts 271°
2026-05-06 20:35 50.90885 0.20827 7991 ft 242 kts 271°
2026-05-06 20:36 50.90895 0.18150 7990 ft 243 kts 271°
2026-05-06 20:36 50.90905 0.15478 8004 ft 241 kts 271°
2026-05-06 20:36 50.90914 0.12813 8005 ft 242 kts 271°
2026-05-06 20:36 50.91184 0.10216 8006 ft 239 kts 295°
2026-05-06 20:37 50.92184 0.08141 8005 ft 241 kts 315°
2026-05-06 20:37 50.93376 0.06322 8005 ft 241 kts 316°
2026-05-06 20:37 50.94584 0.04490 7998 ft 240 kts 316°
2026-05-06 20:37 50.95796 0.02651 8006 ft 241 kts 316°
2026-05-06 20:38 50.97000 0.00826 7905 ft 238 kts 316°
2026-05-06 20:38 50.98204 -0.01002 7592 ft 238 kts 316°
2026-05-06 20:38 50.99394 -0.02825 7287 ft 236 kts 316°
2026-05-06 20:38 51.00558 -0.04619 6964 ft 236 kts 316°
2026-05-06 20:39 51.01731 -0.06430 6660 ft 234 kts 316°
2026-05-06 20:39 51.02892 -0.08233 6347 ft 233 kts 315°
2026-05-06 20:39 51.03720 -0.10377 6060 ft 229 kts 284°
2026-05-06 20:39 51.03839 -0.12948 5998 ft 238 kts 271°
2026-05-06 20:40 51.03837 -0.15554 5998 ft 234 kts 271°
2026-05-06 20:40 51.03831 -0.18147 5999 ft 235 kts 271°
2026-05-06 20:40 51.03831 -0.20745 5993 ft 235 kts 271°
2026-05-06 20:40 51.03829 -0.23304 5843 ft 232 kts 271°
2026-05-06 20:41 51.03825 -0.25875 5467 ft 232 kts 271°
2026-05-06 20:41 51.03818 -0.28435 5183 ft 227 kts 271°
2026-05-06 20:41 51.03812 -0.30071 5105 ft 219 kts 271°
2026-05-06 20:41 51.03805 -0.33174 4969 ft 203 kts 271°
2026-05-06 20:42 51.03792 -0.35336 4936 ft 187 kts 271°
2026-05-06 20:42 51.03784 -0.36695 4715 ft 186 kts 271°
2026-05-06 20:42 51.03770 -0.38722 4321 ft 187 kts 271°
2026-05-06 20:42 51.03749 -0.40802 3936 ft 188 kts 271°
2026-05-06 20:43 51.03725 -0.42878 3569 ft 188 kts 271°
2026-05-06 20:43 51.03701 -0.44954 3212 ft 187 kts 271°
2026-05-06 20:43 51.03675 -0.46998 3012 ft 184 kts 271°
2026-05-06 20:43 51.03877 -0.48988 2991 ft 184 kts 300°
2026-05-06 20:44 51.04792 -0.50316 2993 ft 180 kts 340°
2026-05-06 20:44 51.06022 -0.50445 2988 ft 179 kts 14°
2026-05-06 20:44 51.07162 -0.49558 3000 ft 197 kts 30°
2026-05-06 20:44 51.08350 -0.48442 2994 ft 199 kts 32°
2026-05-06 20:45 51.09440 -0.47064 2993 ft 197 kts 40°
2026-05-06 20:45 51.10344 -0.45590 2988 ft 176 kts 50°
2026-05-06 20:45 51.10976 -0.44076 2984 ft 151 kts 60°
2026-05-06 20:45 51.11392 -0.42647 2983 ft 141 kts 65°
2026-05-06 20:46 51.11716 -0.41199 2843 ft 137 kts 70°
2026-05-06 20:46 51.11964 -0.39731 2664 ft 136 kts 73°
2026-05-06 20:46 51.12176 -0.38274 2491 ft 135 kts 74°
2026-05-06 20:46 51.12375 -0.36831 2306 ft 135 kts 74°
2026-05-06 20:47 51.12576 -0.35368 2125 ft 134 kts 74°
2026-05-06 20:47 51.12776 -0.33910 1942 ft 135 kts 74°
2026-05-06 20:47 51.12976 -0.32454 1762 ft 133 kts 74°
2026-05-06 20:47 51.13173 -0.31021 1571 ft 134 kts 74°
2026-05-06 20:48 51.13369 -0.29589 1390 ft 133 kts 75°
2026-05-06 20:48 51.13567 -0.28138 1201 ft 134 kts 75°
2026-05-06 20:48 51.13767 -0.26688 1010 ft 133 kts 76°
2026-05-06 20:48 51.13960 -0.25276 824 ft 130 kts 76°
2026-05-06 20:49 51.14153 -0.23870 653 ft 132 kts 77°
2026-05-06 20:49 51.14352 -0.22444 431 ft 131 kts 77°
2026-05-06 20:49 51.14548 -0.21000 223 ft 136 kts 77°
2026-05-06 20:49 51.14720 -0.19726 208 ft 95 kts 78°
2026-05-06 20:50 51.14823 -0.18932 206 ft 56 kts 78°
2026-05-06 20:50 51.14901 -0.18390 212 ft 46 kts 78°
2026-05-06 20:50 51.14983 -0.17932 208 ft 40 kts 51°
2026-05-06 20:50 51.15086 -0.17764 208 ft 12 kts 22°
2026-05-06 20:51 51.15103 -0.17759 206 ft 0 kts
2026-05-06 20:51 51.15150 -0.17765 207 ft 16 kts 352°
2026-05-06 20:51 51.15249 -0.17846 213 ft 17 kts 269°
2026-05-06 20:52 51.15220 -0.18018 207 ft 16 kts 254°
2026-05-06 20:52 51.15215 -0.18195 205 ft 16 kts 308°
2026-05-06 20:52 51.15234 -0.18218 205 ft 0 kts 332°
2026-05-06 20:53 51.15242 -0.18224 205 ft 5 kts 333°
2026-05-06 20:53 51.15316 -0.18256 213 ft 15 kts 351°
2026-05-06 20:53 51.15425 -0.18289 211 ft 18 kts 346°
2026-05-06 20:54 51.15554 -0.18329 205 ft 20 kts 351°
2026-05-06 20:54 51.15653 -0.18335 212 ft 11 kts 38°
2026-05-06 20:54 51.15666 -0.18209 207 ft 13 kts 82°
2026-05-06 20:54 51.15687 -0.18061 205 ft 15 kts 79°
2026-05-06 20:55 51.15708 -0.17916 210 ft 14 kts 76°
2026-05-06 20:55 51.15712 -0.17883 205 ft 0 kts 78°
2026-05-06 20:55 51.15713 -0.17876 205 ft 2 kts 78°
2026-05-06 20:56 51.15714 -0.17872 205 ft 0 kts 78°
2026-05-06 20:56 51.15714 -0.17870 205 ft 1 kts 75°
2026-05-06 20:56 51.15726 -0.17864 212 ft 1 kts
2026-05-06 20:57 51.15758 -0.17867 210 ft 7 kts 352°
2026-05-06 20:57 51.15775 -0.17874 205 ft 0 kts 345°